Radiation Dose at Monitoring Post of Fukushima Daini Nuclear Power Station
Date,Time,MP-1(microSv/h),MP-2(microSv/h),MP-3(microSv/h),MP-4(microSv/h),MP-5(microSv/h),MP-6(microSv/h),MP-7(microSv/h),Wind Direction,Wind Velocity(m/s),Rain
2020/05/04,00:00,0.177,0.165,0.277,0.253,0.259,0.141,0.085,south,9.6,No
2020/05/04,00:10,0.178,0.163,0.280,0.251,0.260,0.140,0.085,south-southwest,10.7,No
2020/05/04,00:20,0.177,0.165,0.277,0.251,0.258,0.141,0.086,south,9.6,No
2020/05/04,00:30,0.177,0.164,0.278,0.252,0.262,0.140,0.085,south,11.2,No
2020/05/04,00:40,0.179,0.164,0.278,0.252,0.261,0.140,0.085,south,11.1,No
2020/05/04,00:50,0.177,0.164,0.280,0.252,0.259,0.140,0.085,south,12.9,No
2020/05/04,01:00,0.178,0.163,0.278,0.252,0.260,0.140,0.085,south,12.0,No
2020/05/04,01:10,0.177,0.163,0.279,0.251,0.260,0.141,0.085,south,12.2,No
2020/05/04,01:20,0.180,0.163,0.277,0.251,0.260,0.139,0.085,south,10.9,No
2020/05/04,01:30,0.178,0.164,0.278,0.251,0.260,0.141,0.085,south,11.2,No
2020/05/04,01:40,0.180,0.164,0.276,0.253,0.260,0.141,0.085,south,11.4,No
2020/05/04,01:50,0.176,0.164,0.279,0.252,0.261,0.141,0.084,south,10.4,No
2020/05/04,02:00,0.178,0.164,0.277,0.252,0.261,0.141,0.085,south,10.3,No
2020/05/04,02:10,0.177,0.164,0.280,0.251,0.260,0.141,0.085,south,11.8,No
2020/05/04,02:20,0.180,0.164,0.276,0.252,0.260,0.139,0.085,south,14.0,No
2020/05/04,02:30,0.177,0.164,0.278,0.251,0.260,0.142,0.084,south,11.7,No
2020/05/04,02:40,0.178,0.164,0.276,0.253,0.260,0.139,0.086,south,11.4,No
2020/05/04,02:50,0.177,0.164,0.280,0.251,0.261,0.141,0.085,south,10.0,No
2020/05/04,03:00,0.179,0.164,0.278,0.252,0.260,0.141,0.085,south,11.7,No
2020/05/04,03:10,0.178,0.164,0.280,0.250,0.261,0.140,0.085,south,11.5,No
2020/05/04,03:20,0.179,0.164,0.276,0.251,0.260,0.140,0.085,south,11.4,No
2020/05/04,03:30,0.178,0.164,0.280,0.251,0.261,0.140,0.085,south,10.7,No
2020/05/04,03:40,0.179,0.163,0.276,0.253,0.261,0.141,0.085,south,11.7,No
2020/05/04,03:50,0.178,0.165,0.278,0.252,0.262,0.140,0.085,south,12.4,No
2020/05/04,04:00,0.178,0.163,0.277,0.253,0.261,0.141,0.086,south,12.6,No
2020/05/04,04:10,0.177,0.164,0.279,0.251,0.261,0.141,0.085,south,12.8,Yes
2020/05/04,04:20,0.179,0.163,0.276,0.252,0.260,0.141,0.085,south,9.8,No
2020/05/04,04:30,0.178,0.163,0.280,0.251,0.261,0.140,0.086,south,12.2,No
2020/05/04,04:40,0.177,0.164,0.278,0.252,0.261,0.141,0.085,south,12.0,No
2020/05/04,04:50,0.178,0.165,0.279,0.251,0.260,0.140,0.085,south,11.5,No
2020/05/04,05:00,0.178,0.164,0.277,0.253,0.261,0.141,0.085,south,11.2,No
2020/05/04,05:10,0.178,0.164,0.278,0.250,0.261,0.141,0.085,south,10.1,No
2020/05/04,05:20,0.178,0.163,0.277,0.251,0.261,0.141,0.086,south,10.1,No
2020/05/04,05:30,0.179,0.164,0.278,0.250,0.260,0.139,0.085,south,9.3,No
2020/05/04,05:40,0.177,0.164,0.275,0.251,0.260,0.140,0.084,south,9.8,No
2020/05/04,05:50,0.178,0.164,0.279,0.251,0.260,0.141,0.085,south,9.8,No
2020/05/04,06:00,0.177,0.163,0.276,0.251,0.261,0.140,0.085,south-southwest,10.4,No
2020/05/04,06:10,0.179,0.164,0.277,0.251,0.259,0.140,0.085,south,10.1,No
2020/05/04,06:20,0.177,0.164,0.276,0.252,0.261,0.141,0.085,south,8.7,No
2020/05/04,06:30,0.179,0.164,0.280,0.251,0.259,0.141,0.085,south,9.8,No
2020/05/04,06:40,0.178,0.163,0.277,0.250,0.260,0.139,0.085,south,9.0,No
2020/05/04,06:50,0.179,0.164,0.279,0.250,0.259,0.142,0.085,south,8.7,No
2020/05/04,07:00,0.178,0.164,0.277,0.251,0.263,0.140,0.085,south-southwest,8.4,Yes
2020/05/04,07:10,0.179,0.166,0.279,0.251,0.260,0.142,0.087,south,7.4,Yes
2020/05/04,07:20,0.179,0.165,0.278,0.253,0.262,0.142,0.086,south,9.5,Yes
2020/05/04,07:30,0.178,0.165,0.280,0.253,0.261,0.142,0.086,south,9.5,Yes
2020/05/04,07:40,0.180,0.165,0.279,0.252,0.261,0.142,0.087,south,9.8,No
2020/05/04,07:50,0.180,0.165,0.280,0.252,0.261,0.142,0.086,south,8.2,No
2020/05/04,08:00,0.179,0.165,0.279,0.254,0.260,0.142,0.086,south,7.6,No
2020/05/04,08:10,0.178,0.165,0.277,0.251,0.263,0.141,0.086,south,7.7,No
2020/05/04,08:20,0.178,0.164,0.279,0.253,0.258,0.142,0.086,south,7.7,No
2020/05/04,08:30,0.178,0.165,0.277,0.250,0.261,0.140,0.086,south,9.5,No
2020/05/04,08:40,0.178,0.164,0.279,0.252,0.259,0.142,0.085,south,9.5,No
2020/05/04,08:50,0.180,0.165,0.277,0.251,0.259,0.140,0.085,south,9.0,No
2020/05/04,09:00,0.178,0.164,0.279,0.252,0.261,0.141,0.085,south,7.4,No
2020/05/04,09:10,0.178,0.164,0.278,0.252,0.258,0.141,0.085,south,5.7,No
2020/05/04,09:20,0.178,0.165,0.275,0.249,0.261,0.140,0.085,south,6.1,No
2020/05/04,09:30,0.177,0.164,0.279,0.253,0.261,0.140,0.085,south,6.5,No
2020/05/04,09:40,0.178,0.163,0.278,0.251,0.258,0.141,0.085,south,7.3,No
2020/05/04,09:50,0.178,0.165,0.276,0.249,0.259,0.140,0.085,south,8.7,No
2020/05/04,10:00,0.177,0.164,0.275,0.250,0.261,0.141,0.084,south,8.5,No
2020/05/04,10:10,0.179,0.163,0.279,0.252,0.258,0.140,0.085,south,7.7,No
2020/05/04,10:20,0.178,0.164,0.276,0.250,0.258,0.140,0.085,south,8.3,No
2020/05/04,10:30,0.177,0.164,0.276,0.250,0.261,0.141,0.085,south,7.5,No
2020/05/04,10:40,0.178,0.163,0.276,0.252,0.260,0.141,0.085,south,7.1,No
2020/05/04,10:50,0.179,0.164,0.280,0.252,0.258,0.139,0.084,south,7.9,No
2020/05/04,11:00,0.177,0.164,0.276,0.249,0.260,0.140,0.085,south,8.5,No
2020/05/04,11:10,0.178,0.164,0.276,0.252,0.261,0.140,0.085,south,8.4,No
2020/05/04,11:20,0.178,0.165,0.279,0.252,0.260,0.140,0.084,south,9.0,No
2020/05/04,11:30,0.177,0.164,0.278,0.249,0.258,0.140,0.085,south,7.7,No
2020/05/04,11:40,0.177,0.164,0.278,0.252,0.260,0.142,0.085,south,8.7,No
2020/05/04,11:50,0.179,0.166,0.276,0.252,0.262,0.141,0.084,south,10.1,No
2020/05/04,12:00,0.177,0.164,0.277,0.250,0.258,0.140,0.085,south-southeast,10.6,No
2020/05/04,12:10,0.177,0.164,0.279,0.251,0.259,0.141,0.084,south-southeast,10.4,No
2020/05/04,12:20,0.179,0.164,0.277,0.252,0.261,0.140,0.086,south,11.2,No
2020/05/04,12:30,0.178,0.164,0.278,0.251,0.259,0.141,0.085,south,11.5,No
2020/05/04,12:40,0.177,0.164,0.281,0.253,0.262,0.141,0.085,south-southeast,10.6,No
2020/05/04,12:50,0.179,0.164,0.277,0.252,0.260,0.140,0.085,south-southeast,10.6,No
2020/05/04,13:00,0.177,0.162,0.276,0.250,0.258,0.141,0.085,south,11.5,No
2020/05/04,13:10,0.179,0.164,0.279,0.254,0.261,0.140,0.085,south-southeast,10.7,No
2020/05/04,13:20,0.177,0.164,0.277,0.252,0.261,0.141,0.084,south-southeast,9.2,No
2020/05/04,13:30,0.177,0.164,0.276,0.251,0.258,0.141,0.085,south,8.1,No
2020/05/04,13:40,0.179,0.165,0.278,0.254,0.257,0.141,0.085,south,9.5,No
2020/05/04,13:50,0.178,0.164,0.278,0.251,0.262,0.140,0.085,south,8.9,No
2020/05/04,14:00,0.177,0.163,0.277,0.250,0.261,0.141,0.085,south,8.4,No
2020/05/04,14:10,0.180,0.164,0.278,0.253,0.258,0.141,0.086,south,7.6,No
2020/05/04,14:20,0.178,0.162,0.279,0.252,0.264,0.140,0.085,south,7.9,No
2020/05/04,14:30,0.179,0.165,0.278,0.250,0.260,0.141,0.085,south,7.5,No
2020/05/04,14:40,0.179,0.164,0.277,0.254,0.258,0.141,0.085,south,7.7,No
2020/05/04,14:50,0.177,0.163,0.280,0.251,0.261,0.140,0.086,south,8.3,No
2020/05/04,15:00,0.178,0.165,0.277,0.251,0.261,0.140,0.085,south-southeast,8.1,No
2020/05/04,15:10,0.179,0.163,0.278,0.253,0.259,0.140,0.086,south,9.3,No
2020/05/04,15:20,0.177,0.165,0.281,0.250,0.259,0.142,0.085,south-southeast,8.7,No
2020/05/04,15:30,0.177,0.164,0.278,0.253,0.261,0.141,0.085,south-southeast,10.1,No
2020/05/04,15:40,0.179,0.164,0.278,0.251,0.259,0.140,0.085,south-southeast,9.2,No
2020/05/04,15:50,0.177,0.165,0.278,0.251,0.258,0.141,0.085,south-southeast,9.8,No
2020/05/04,16:00,0.179,0.163,0.278,0.254,0.260,0.141,0.086,south-southeast,10.9,No
2020/05/04,16:10,0.178,0.165,0.279,0.251,0.259,0.141,0.085,south-southeast,10.3,No
2020/05/04,16:20,0.177,0.165,0.279,0.253,0.260,0.141,0.085,south,10.9,No
2020/05/04,16:30,0.178,0.165,0.280,0.252,0.262,0.140,0.086,south-southeast,10.4,No
2020/05/04,16:40,0.178,0.164,0.282,0.253,0.258,0.142,0.085,south,8.9,No
2020/05/04,16:50,0.178,0.164,0.277,0.253,0.261,0.140,0.084,south,9.3,No
2020/05/04,17:00,0.178,0.165,0.279,0.251,0.262,0.141,0.085,south-southeast,10.0,No
2020/05/04,17:10,0.178,0.164,0.278,0.254,0.260,0.141,0.085,south-southeast,9.5,No
2020/05/04,17:20,0.179,0.165,0.278,0.251,0.258,0.141,0.085,south,9.0,No
2020/05/04,17:30,0.177,0.164,0.280,0.253,0.262,0.142,0.085,south-southeast,9.2,No
2020/05/04,17:40,0.178,0.165,0.277,0.251,0.258,0.140,0.085,south-southeast,9.0,No
2020/05/04,17:50,0.179,0.164,0.281,0.253,0.262,0.142,0.084,south,9.8,No
2020/05/04,18:00,0.178,0.165,0.279,0.252,0.261,0.140,0.085,south,9.0,No
2020/05/04,18:10,0.178,0.165,0.279,0.252,0.260,0.140,0.085,south,8.2,No
2020/05/04,18:20,0.178,0.165,0.278,0.252,0.261,0.142,0.085,south,7.2,No
2020/05/04,18:30,0.179,0.164,0.278,0.252,0.259,0.141,0.085,south,6.8,No
2020/05/04,18:40,0.178,0.165,0.280,0.252,0.263,0.142,0.086,south-southwest,6.9,No
2020/05/04,18:50,0.179,0.164,0.277,0.252,0.259,0.141,0.085,south,6.5,No
2020/05/04,19:00,0.178,0.165,0.281,0.252,0.262,0.142,0.085,south,5.9,No
2020/05/04,19:10,0.179,0.163,0.279,0.252,0.260,0.140,0.085,south,5.1,No
2020/05/04,19:20,0.179,0.164,0.279,0.253,0.262,0.141,0.085,south,5.7,No
2020/05/04,19:30,0.179,0.164,0.278,0.253,0.261,0.141,0.085,south,5.2,No
2020/05/04,19:40,0.179,0.164,0.280,0.252,0.262,0.141,0.086,south,4.1,No
2020/05/04,19:50,0.178,0.164,0.279,0.253,0.262,0.140,0.085,south-southwest,3.1,No
2020/05/04,20:00,0.179,0.166,0.280,0.253,0.260,0.141,0.085,southwest,2.8,No
2020/05/04,20:10,0.179,0.165,0.279,0.253,0.261,0.141,0.085,south-southwest,2.8,No
2020/05/04,20:20,0.179,0.165,0.279,0.252,0.261,0.141,0.085,south-southwest,2.9,No
2020/05/04,20:30,0.178,0.165,0.278,0.254,0.261,0.140,0.085,southwest,2.9,No
2020/05/04,20:40,0.179,0.164,0.280,0.252,0.261,0.141,0.085,southwest,2.6,No
2020/05/04,20:50,0.178,0.166,0.278,0.254,0.260,0.142,0.085,southwest,2.5,No
2020/05/04,21:00,0.179,0.165,0.280,0.252,0.261,0.141,0.085,west-southwest,2.7,No
2020/05/04,21:10,0.178,0.166,0.278,0.255,0.262,0.141,0.085,west,1.9,No
2020/05/04,21:20,0.179,0.164,0.280,0.252,0.259,0.141,0.086,west,1.8,No
2020/05/04,21:30,0.179,0.165,0.279,0.253,0.262,0.142,0.085,west-southwest,1.6,No
2020/05/04,21:40,0.179,0.165,0.280,0.252,0.260,0.141,0.086,west-northwest,2.3,No
2020/05/04,21:50,0.178,0.164,0.279,0.253,0.262,0.141,0.085,west-northwest,0.9,No
2020/05/04,22:00,0.179,0.165,0.278,0.252,0.259,0.141,0.086,-,CALM,No
2020/05/04,22:10,0.179,0.164,0.280,0.254,0.261,0.142,0.085,-,CALM,No
2020/05/04,22:20,0.179,0.165,0.280,0.252,0.260,0.141,0.086,east-northeast,2.1,No
2020/05/04,22:30,0.179,0.164,0.281,0.253,0.263,0.141,0.085,east,1.2,No
2020/05/04,22:40,0.178,0.166,0.278,0.251,0.260,0.142,0.086,west,0.9,No
2020/05/04,22:50,0.179,0.165,0.281,0.254,0.262,0.141,0.085,north-northwest,1.0,No
2020/05/04,23:00,0.179,0.166,0.277,0.252,0.259,0.142,0.085,west-northwest,1.9,No
2020/05/04,23:10,0.179,0.165,0.281,0.254,0.262,0.141,0.086,west-northwest,3.2,No
2020/05/04,23:20,0.179,0.164,0.279,0.251,0.259,0.142,0.086,west-northwest,2.7,No
2020/05/04,23:30,0.178,0.165,0.281,0.252,0.261,0.141,0.086,northwest,3.0,No
2020/05/04,23:40,0.179,0.165,0.279,0.251,0.262,0.143,0.086,northwest,3.6,No
2020/05/04,23:50,0.179,0.166,0.280,0.252,0.259,0.142,0.086,northwest,2.1,No
